FW5198 Weather Reports


Display with metric or nautical units.
time (UTC)temp
F
wind
direction
speed
MPH
gust
MPH
rain 1hr
in
rain 24hr
in
rain mn
in
humidity
%
barometer
mb
20260504213042 79 65 5.0 18.0 0.00 0.00 0.00 42 1010.3
20260504211542 79 15 5.0 15.0 0.00 0.00 0.00 42 1010.3
20260504210055 79 17 9.0 19.0 0.00 0.00 0.00 39 1010.6
20260504204553 79 50 9.0 17.0 0.00 0.00 0.00 40 1010.8
20260504203038 79 51 7.0 14.0 0.00 0.00 0.00 42 1010.9
20260504201542 79 56 7.0 16.0 0.00 0.00 0.00 42 1011.1
20260504200043 78 59 7.0 17.0 0.00 0.00 0.00 44 1011.4
20260504194540 78 18 9.0 19.0 0.00 0.00 0.00 46 1011.2
20260504193040 78 82 7.0 14.0 0.00 0.00 0.00 46 1011.5
20260504191543 78 353 6.0 15.0 0.00 0.00 0.00 46 1011.8
20260504190038 78 33 5.0 15.0 0.00 0.00 0.00 45 1012.0
20260504184543 78 68 5.0 17.0 0.00 0.00 0.00 48 1011.9
20260504183040 78 46 6.0 18.0 0.00 0.00 0.00 47 1012.2
20260504181537 77 45 5.0 18.0 0.00 0.00 0.00 47 1012.2
20260504180039 77 40 8.0 16.0 0.00 0.00 0.00 48 1012.5
20260504174538 77 346 6.0 16.0 0.00 0.00 0.00 48 1012.6
20260504173041 76 37 8.0 17.0 0.00 0.00 0.00 48 1012.7
20260504171539 76 11 6.0 13.0 0.00 0.00 0.00 50 1013.0
20260504081541 52 50 1.0 4.0 0.00 0.00 0.00 75 1014.1
20260504044544 54 65 4.0 7.0 0.00 0.00 0.00 68 1015.2
20260504043048 52 41 1.0 3.0 0.00 0.00 0.00 73 1015.3
20260504041544 52 18 0.0 1.0 0.00 0.00 0.00 74 1015.6
20260504040046 51 0 0.0 3.0 0.00 0.00 0.00 77 1015.7
20260504034547 52 0 0.0 1.0 0.00 0.00 0.00 77 1015.8
20260504033046 52 0 0.0 1.0 0.00 0.00 0.00 75 1016.0
20260504031544 53 0 0.0 0.0 0.00 0.00 0.00 73 1016.0
20260504030040 53 0 0.0 1.0 0.00 0.00 0.00 73 1016.0
20260504024547 54 0 0.0 1.0 0.00 0.00 0.00 71 1015.9
20260504023046 55 0 0.0 1.0 0.00 0.00 0.00 67 1015.9
20260504021542 56 0 0.0 4.0 0.00 0.00 0.00 66 1015.5
20260504020043 56 18 2.0 4.0 0.00 0.00 0.00 65 1015.4
20260504014542 55 45 0.0 1.0 0.00 0.00 0.00 68 1015.5
20260504013102 57 0 0.0 1.0 0.00 0.00 0.00 67 1015.5
20260504011546 58 0 0.0 1.0 0.00 0.00 0.00 63 1015.4
20260504010045 59 0 0.0 1.0 0.00 0.00 0.00 61 1015.6
20260504004541 62 44 0.0 1.0 0.00 0.00 0.00 56 1015.6
20260504003041 63 44 1.0 4.0 0.00 0.00 0.00 49 1015.7
20260504001543 64 44 1.0 4.0 0.00 0.00 0.00 47 1015.8
20260504000046 65 37 1.0 5.0 0.00 0.00 0.00 45 1015.7
20260503234543 65 25 2.0 9.0 0.00 0.00 0.00 43 1015.9
20260503233039 66 55 4.0 10.0 0.00 0.00 0.00 41 1016.0
20260503231541 67 49 3.0 7.0 0.00 0.00 0.00 40 1016.4
20260503230049 68 57 3.0 10.0 0.00 0.00 0.00 40 1016.3
20260503224550 68 100 2.0 8.0 0.00 0.00 0.00 40 1016.6
20260503223042 68 35 3.0 8.0 0.00 0.00 0.00 39 1016.5
20260503221551 68 348 3.0 13.0 0.00 0.00 0.00 39 1016.7
20260503220047 68 26 4.0 8.0 0.00 0.00 0.00 38 1016.9
20260503214545 67 58 4.0 12.0 0.00 0.02 0.00 40 1017.2